SCP
1 1 1 1 0 0 0 0 0 0 0 0 0 0 0 0 1 1 1 1 1 1 1 2 2 2 1 1 1 1 2 2 2 2 2 1 1 1 1 1 1 0 0
1 1 1 0 0 0 0 0 0 1 1 0 0 0 0 0 1 1 1 1 1 1 1 1 2 2 2 2 1 1 2 2 2 2 2 1 1 1 1 1 1 0 0
1 1 0 0 0 0 0 0 1 1 1 1 1 0 0 1 1 0 0 0 1 1 1 1 1 2 2 2 2 2 2 2 2 2 2 2 1 1 1 1 1 1 1
0 0 0 0 0 0 0 0 1 1 1 1 1 1 1 1 1 0 0 0 0 0 1 1 1 2 2 2 2 2 2 2 2 2 2 2 1 1 1 1 1 1 1
0 0 0 0 0 0 0 0 0 1 1 1 1 1 1 1 1 0 0 0 0 0 0 1 1 1 1 2 2 2 2 2 2 2 2 2 1 1 1 1 1 1 1
0 0 0 0 0 0 0 0 0 1 1 2 1 1 1 1 1 1 0 0 0 0 0 1 1 1 1 1 2 2 2 2 2 2 2 2 1 1 1 1 1 1 1
0 0 0 0 0 0 0 0 0 0 1 1 1 1 1 1 1 1 0 0 0 0 1 1 1 1 1 1 1 2 2 2 2 2 2 2 1 1 1 1 0 0 0
0 0 0 0 0 0 0 0 0 0 1 1 1 1 1 1 1 0 0 0 0 1 1 1 1 1 1 1 1 1 2 2 2 2 2 2 1 1 1 1 0 0 0
0 0 0 0 0 0 0 0 0 0 0 1 2 1 1 1 0 0 0 0 0 0 1 1 1 1 1 1 1 1 1 2 2 2 2 2 2 2 1 1 0 0 0
0 1 1 0 0 0 0 0 0 0 0 1 1 1 1 1 0 0 0 0 0 0 0 1 1 1 1 1 1 1 1 1 1 2 1 1 2 2 2 1 1 1 1
0 0 1 0 0 0 0 0 0 0 0 1 1 1 1 1 1 0 0 0 0 0 0 0 0 0 0 1 1 0 0 0 1 1 1 1 1 2 2 1 1 1 1
0 0 0 0 0 0 0 0 1 1 1 1 1 1 1 1 1 0 0 0 0 0 0 0 0 0 0 0 0 0 0 0 0 0 1 1 1 2 2 1 1 1 1
0 0 0 0 0 0 0 1 1 1 1 1 1 1 1 1 1 1 0 0 0 0 0 0 0 0 0 0 0 0 0 0 0 0 0 1 1 1 1 1 1 1 1
0 0 0 0 0 0 1 1 1 1 1 1 1 1 1 1 1 1 0 0 0 0 0 0 0 0 0 0 0 0 0 0 0 0 0 0 1 1 1 1 1 1 1
0 0 0 0 0 0 1 1 1 1 1 1 1 1 1 1 1 1 1 0 0 0 0 0 0 0 0 0 0 0 0 0 0 0 0 0 0 0 0 0 0 0 0
0 0 0 0 0 0 1 1 1 1 1 1 1 1 1 2 2 1 1 1 1 1 0 0 0 0 0 0 0 0 0 0 0 0 0 0 0 0 0 0 0 0 0
1 0 0 0 0 0 0 1 1 1 1 1 1 1 1 2 2 2 1 1 1 1 0 0 0 0 0 0 0 0 0 0 0 0 0 0 0 0 0 0 0 0 0
1 1 0 0 0 0 0 0 1 1 1 1 1 1 1 2 2 2 1 1 1 1 0 0 1 0 0 0 0 0 0 0 0 0 0 0 0 0 0 0 0 0 0
1 1 1 0 0 0 0 0 1 1 1 1 1 1 1 1 2 2 1 1 1 1 0 0 1 1 0 0 0 0 0 0 0 0 0 0 0 0 0 0 0 0 0
1 1 1 1 1 0 0 0 1 1 1 1 1 1 1 1 1 1 1 1 1 1 1 0 0 1 1 0 0 0 0 0 0 0 0 0 0 0 0 0 0 0 0
1 1 1 1 1 1 0 0 0 0 1 1 1 1 1 1 1 1 1 1 1 1 1 1 0 0 0 0 0 0 0 0 0 0 0 0 0 0 0 0 0 0 0
2 2 1 1 1 1 0 0 0 0 1 1 1 1 1 1 1 1 1 1 1 1 1 0 0 0 0 0 0 0 0 0 0 0 0 0 0 0 0 0 0 0 0
2 1 1 1 1 1 0 0 0 0 0 1 1 1 1 0 0 0 0 0 0 0 0 0 0 0 0 0 0 0 1 1 1 1 1 0 0 0 0 0 0 0 0
1 1 1 1 1 0 0 0 0 0 0 1 1 1 1 0 0 0 0 0 0 0 0 0 0 0 0 0 0 1 1 1 1 1 1 0 0 0 0 0 0 0 0
1 1 1 1 1 0 0 0 0 0 0 1 1 1 1 0 0 0 0 1 0 0 0 0 0 0 0 0 0 1 1 1 1 0 0 0 0 0 0 0 0 0 0
1 1 0 0 0 0 0 0 0 0 0 1 1 1 1 0 0 0 0 1 1 0 0 0 0 0 0 0 0 0 1 1 0 0 0 0 0 0 0 0 0 0 0
Wind_Speed
3 4 3 3 3 3 3 3 3 5 5 5 5 5 6 6 5 5 5 10 10 10 9 9 9 9 9 9 9 9 9 9 8 8 8 8 7 7 7 7 6 6 6
3 3 4 3 3 3 3 3 4 3 3 4 4 5 5 5 5 5 5 7 10 10 9 8 8 9 9 9 9 8 8 8 8 7 7 8 7 7 7 7 7 6 6
3 3 3 3 3 3 3 3 4 3 3 3 4 4 4 4 4 5 4 4 5 8 9 8 8 8 8 8 8 8 7 7 7 7 7 7 7 7 7 6 7 6 6
3 3 2 2 3 2 2 2 2 2 2 2 3 3 3 3 4 4 3 4 4 4 7 9 8 7 7 7 7 7 7 7 7 7 7 7 7 7 7 7 6 6 6
2 2 2 2 2 2 2 2 2 1 2 2 2 2 2 2 3 3 3 4 4 3 4 6 7 7 7 6 6 6 7 7 6 6 6 6 6 6 6 7 7 6 6
2 2 2 2 2 1 1 1 2 1 1 1 1 2 2 2 2 2 2 3 3 3 4 3 3 5 6 6 6 6 6 6 6 6 6 6 6 6 6 6 7 7 7
1 1 1 1 1 1 1 1 1 1 1 0 1 2 2 2 2 2 1 2 3 3 2 3 2 2 3 6 6 5 5 5 5 5 5 6 6 6 6 6 6 6 6
1 1 2 2 2 1 2 1 1 1 0 1 1 1 1 3 2 2 1 1 2 2 2 2 3 2 2 2 5 5 5 4 4 4 4 4 4 5 5 5 5 6 6
1 2 2 2 2 2 2 2 2 2 1 1 1 2 2 1 1 2 2 1 1 1 1 1 2 2 2 2 2 4 4 4 3 3 3 3 3 4 4 4 4 5 5
2 2 2 2 3 2 2 3 3 2 2 2 1 2 2 2 2 1 2 2 1 0 0 0 1 1 2 2 3 5 5 4 3 2 2 2 2 2 3 3 3 4 4
3 3 3 3 3 2 2 2 2 2 2 2 1 1 1 1 3 2 1 1 1 1 0 1 0 0 1 1 2 5 5 4 4 3 2 2 2 2 2 2 2 3 4
2 3 3 3 3 2 3 3 3 3 3 2 2 2 2 2 2 1 2 1 1 0 0 0 1 0 0 1 3 5 4 4 4 4 3 3 3 3 2 1 1 2 2
3 4 4 4 3 3 3 3 4 4 4 4 3 2 2 2 2 2 2 1 2 1 1 1 1 1 1 0 2 3 3 3 4 4 4 3 3 3 3 2 2 2 2
3 4 4 4 4 4 4 4 4 4 4 4 4 3 2 2 2 2 2 2 2 1 2 1 1 1 0 1 3 2 2 3 3 3 3 3 3 2 3 3 2 2 2
3 4 5 5 5 5 4 4 4 4 4 4 4 4 3 2 3 2 2 3 3 3 2 1 1 1 1 1 1 2 1 4 2 2 3 3 2 2 2 2 2 2 2
4 4 5 5 5 5 5 4 4 4 5 4 3 4 4 3 3 3 3 3 3 3 3 0 1 1 1 2 1 2 0 3 1 0 2 2 2 1 1 1 2 2 2
5 5 5 5 5 5 5 5 5 5 5 5 5 5 5 4 3 3 3 3 3 3 4 2 1 1 2 3 2 2 2 2 1 2 0 1 2 1 1 1 2 2 2
5 5 5 5 5 5 5 5 5 5 5 5 5 5 5 3 5 4 3 4 3 4 4 3 2 2 3 3 2 3 3 2 2 3 2 2 2 2 2 2 2 2 2
5 5 5 6 5 5 5 5 5 5 6 6 5 6 5 5 5 4 4 4 3 3 4 4 3 2 2 2 2 3 3 3 3 2 4 4 3 3 3 3 2 2 2
5 5 5 5 5 5 5 5 5 6 5 5 5 5 6 6 6 5 4 4 4 4 4 4 3 3 2 2 3 3 3 3 3 3 2 3 4 5 5 5 4 3 3
5 5 5 5 5 5 4 5 5 5 6 5 5 5 5 4 3 3 3 4 4 4 4 4 3 3 3 3 3 3 3 3 3 3 3 3 3 4 4 6 6 4 4
5 5 5 5 5 4 3 3 4 5 5 6 5 5 5 5 4 4 4 4 5 5 5 4 4 4 4 4 3 4 4 4 3 2 4 4 3 3 3 3 2 3 5
4 5 5 5 5 5 4 5 5 5 5 5 5 4 3 4 5 5 6 7 6 6 6 6 6 5 5 3 4 5 5 5 4 1 3 4 3 4 3 2 3 4 5
4 4 5 5 5 4 5 6 6 7 6 5 5 5 5 5 4 4 5 5 6 5 6 7 6 5 4 4 5 5 5 5 4 2 3 4 3 4 3 3 4 5 6
4 4 4 4 4 4 4 5 5 5 5 5 4 4 4 4 2 3 5 5 5 4 3 3 3 3 3 3 3 3 4 4 3 2 2 4 3 4 4 4 3 6 7
4 4 4 4 4 3 3 4 5 4 4 4 4 4 3 3 1 3 5 5 5 4 4 4 4 4 4 4 5 5 4 4 3 3 2 3 3 2 3 2 2 2 4
Wind_Direction
90 93 89 79 74 76 84 76 71 68 68 66 62 61 66 70 70 69 73 62 55 58 67 73 75 76 77 76 74 70 70 70 71 71 68 64 63 64 61 59 58 56 52
95 89 86 80 71 68 67 75 77 76 72 66 65 64 59 65 68 74 78 82 67 56 57 66 70 69 71 71 71 70 70 70 67 69 69 66 62 61 59 57 52 51 48
95 93 84 84 81 80 78 69 74 70 76 81 76 68 65 59 65 69 68 67 83 76 60 59 65 67 67 67 68 67 68 68 65 65 68 66 61 57 58 56 49 50 46
99 89 85 84 81 73 73 74 71 77 79 75 73 69 76 79 72 71 77 76 66 72 77 61 58 62 65 68 69 68 68 69 68 66 66 65 60 56 54 48 46 45 44
114 105 88 92 95 85 75 76 66 64 79 80 82 75 72 76 77 78 76 73 76 74 81 91 75 58 53 57 64 62 65 69 69 69 69 66 60 56 52 47 47 46 43
128 114 133 132 117 115 95 93 91 76 73 83 91 88 89 97 88 69 65 72 71 70 62 68 92 90 69 54 54 58 61 65 70 73 70 65 60 57 52 48 48 44 42
164 144 173 150 152 152 145 139 128 138 143 127 169 134 128 105 89 97 74 72 81 69 71 65 54 59 98 89 57 53 57 62 74 73 68 64 61 56 51 50 47 42 39
198 197 210 195 187 183 193 177 195 245 166 238 282 254 175 151 141 110 116 90 81 84 60 57 59 61 43 64 80 64 52 54 75 76 72 68 64 56 52 50 44 42 40
207 229 231 222 215 218 202 207 212 225 235 242 289 306 300 19 121 149 120 124 100 101 106 70 58 58 59 57 76 78 50 42 51 63 71 69 58 51 54 50 45 46 42
208 217 225 229 218 225 212 214 216 224 238 240 212 288 314 346 288 173 167 144 125 134 65 75 52 64 67 65 74 59 48 39 30 34 33 39 39 43 52 51 51 55 47
211 217 225 228 226 222 226 223 222 231 228 249 243 232 233 242 269 281 260 194 173 154 38 324 304 56 68 69 59 69 53 40 30 25 15 13 15 22 38 54 58 58 50
215 216 220 222 225 228 227 227 223 222 241 243 252 249 249 253 261 261 263 252 250 110 205 249 264 145 101 101 75 68 53 41 34 30 26 19 16 10 12 35 62 54 48
218 216 213 221 221 229 229 222 222 225 228 233 243 251 258 274 277 274 266 276 277 249 217 213 188 175 189 158 104 80 82 52 36 31 27 18 17 23 23 29 35 43 43
232 224 216 220 219 223 225 220 232 224 233 232 234 233 240 249 250 256 271 276 270 252 228 207 160 191 222 215 78 259 119 89 48 34 29 23 21 28 26 24 23 26 25
237 230 218 217 215 218 222 219 230 224 231 239 240 231 231 235 235 240 246 257 272 275 262 190 190 177 215 220 132 240 222 93 60 30 21 14 13 22 26 24 18 6 9
229 226 221 220 218 217 217 217 231 237 232 230 241 245 238 236 233 232 236 248 258 271 280 260 218 198 211 242 197 262 307 128 183 35 5 1 348 352 6 8 0 352 347
226 225 222 221 221 222 219 213 226 226 233 231 223 229 232 234 225 225 235 243 245 249 260 269 233 217 223 243 221 250 249 242 186 162 245 323 334 321 317 328 330 326 321
225 225 222 224 223 225 224 222 224 225 230 232 229 228 228 218 229 229 229 237 239 242 253 259 253 247 252 248 248 248 255 257 259 149 205 257 276 285 274 273 286 299 307
223 223 226 226 224 223 222 227 228 229 229 231 230 230 229 224 225 224 228 235 242 240 245 250 251 257 254 240 244 250 252 255 258 204 206 220 228 248 257 254 261 269 278
224 223 225 225 225 222 223 228 230 229 229 231 230 232 234 233 233 231 227 230 233 234 232 239 239 238 236 238 237 242 245 241 254 250 239 242 216 227 235 240 242 251 260
228 226 225 224 221 218 226 230 229 228 227 226 226 230 235 245 267 255 248 236 229 230 228 233 236 239 230 223 234 243 251 253 251 249 255 242 232 239 227 222 223 233 244
227 224 224 220 219 217 204 221 242 228 227 225 225 224 218 215 220 226 245 253 254 245 239 233 235 239 241 235 237 241 245 250 253 232 261 257 248 251 247 245 205 219 234
220 219 219 217 220 213 190 198 222 236 234 231 225 220 220 216 219 224 211 214 227 243 255 258 249 248 249 244 241 243 243 249 263 265 267 262 250 256 251 237 193 220 227
215 217 218 219 220 212 191 201 215 230 231 229 225 225 224 222 220 238 228 223 227 225 234 246 253 255 257 255 245 247 254 260 257 230 250 267 263 261 263 249 200 215 225
217 221 218 217 219 210 185 197 217 226 230 228 226 227 227 227 195 226 236 231 231 227 212 241 284 288 303 286 271 248 241 245 253 235 238 266 272 277 265 251 215 208 224
216 216 217 218 218 215 166 180 215 225 226 224 220 216 206 250 194 212 231 234 236 238 233 218 222 222 233 213 221 236 238 246 255 247 212 246 257 269 268 252 260 241 232